Location: Czekanka
(50.4925°N, 19.2643°E)
Time: 16:30:45
(UTC+00:00)

Cosmos 1975 Rocket - Visible Passes

Search period start: 08 September 2024 00:00
Search period end: 18 September 2024 00:00
Orbit: 599 x 630 km, 82.5° (Epoch: 07 September)

Date Brightness Start Highest point End Pass type
(mag) Time Alt. Az. Time Alt. Az. Time Alt. Az.
08 Sep 5.1 00:33:05 10° NNW 00:34:32 19° NW 00:34:32 19° NW visible
08 Sep 5.3 23:11:12 10° N 23:13:04 23° NNE 23:13:04 23° NNE visible
09 Sep 5.5 00:49:25 10° NW 00:50:06 13° NW 00:50:06 13° NW visible
09 Sep 5.3 23:27:00 10° N 23:28:39 22° N 23:28:39 22° N visible
10 Sep 5.9 22:06:21 10° NNE 22:07:12 13° NE 22:07:12 13° NE visible
10 Sep 5.4 23:42:56 10° NNW 23:44:15 19° NNW 23:44:15 19° NNW visible
11 Sep 5.7 22:21:37 10° NNE 22:22:48 16° NNE 22:22:48 16° NNE visible
11 Sep 5.6 23:59:00 10° NNW 23:59:51 15° NNW 23:59:51 15° NNW visible
12 Sep 5.7 22:37:11 10° N 22:38:25 17° NNE 22:38:25 17° NNE visible
13 Sep 5.8 00:15:17 10° NNW 00:15:28 11° NW 00:15:28 11° NW visible
13 Sep 5.7 22:52:56 10° N 22:54:02 17° N 22:54:02 17° N visible
14 Sep 6.0 21:32:24 10° NNE 21:32:37 11° NNE 21:32:37 11° NNE visible
14 Sep 5.8 23:08:50 10° NNW 23:09:40 15° NNW 23:09:40 15° NNW visible
15 Sep 5.9 21:47:34 10° NNE 21:48:15 13° NNE 21:48:15 13° NNE visible
15 Sep 5.9 23:24:52 10° NNW 23:25:18 13° NNW 23:25:18 13° NNW visible
16 Sep 5.9 22:03:05 10° N 22:03:54 15° N 22:03:54 15° N visible
17 Sep 6.0 22:18:48 10° N 22:19:32 15° N 22:19:32 15° N visible
